sat.trackr.live / text

‹ back to catalog

STARLINK-1364

NORAD 45589 · 2020-025BL

PAYLOAD ACTIVE UNKNOWN

§ Identity

Operator
Country
US
Launch date
2020-04-22
Launch site
AFETR
Launch vehicle
Mass (kg)
RCS (m²)

Purposes: comms

External: N2YO · Heavens-Above · Gunter

§ Orbital elements

Epoch: 2026-09-18T04:39:20.261664Z

Period
90.95 min
Inclination
53.0326°
Eccentricity
0.0003202
Mean motion
15.83223849 rev/d
Perigee alt
319.2 km
Apogee alt
323.5 km
Semi-major
6,699.5 km
B*
4.4393e-4
RAAN
194.9503°
Arg perigee
90.4088°
Mean anomaly
269.7301°
Rev number
35,588

§ Raw data

STARLINK-13641 45589U 20025BL  26261.19398451  .00098196  00000+0  44393-3 0  99952 45589  53.0326 194.9503 0003202  90.4088 269.7301 15.83223849355881

JSON: /api/v1/satellites/45589 · /tle

For live sub-satellite position, see the globe view (requires WebGL).

§ Visibility from observer

Set your observer location to see the next 7 days of passes ≥ 10°. The values pass through the URL so the page stays shareable.

No JS? Fill the form by hand. The geolocation button needs JavaScript.